Location: ???????
(38.3360°N, 23.6977°E)
Time: 04:44:24
(UTC+00:00)

OAO 2 Rocket - Pass Details

Date: 17 November 2025
Orbit: 668 x 734 km, 35.0° (Epoch: 09 December)

Event Time Altitude Azimuth Distance (km) Brightness Sun altitude
Rises 17:39:05 0° 272° (W) 3,062 7.8 -28.9°
Reaches altitude 10° 17:41:34 10° 266° (W) 2,156 6.8 -29.4°
Enters shadow 17:45:34 39° 219° (SW) 1,052 4.4 -30.2°
